Weather reports worldwide

Advertisment
Sevilla/San Pablo, Spain (8391): temperature & dewpoint: 20.09.2018 17:00:00 - 26.09.2018 17:00:00 (CEST)Sevilla/San Pablo, Spain (8391): wind speed: 20.09.2018 17:00:00 - 26.09.2018 17:00:00 (CEST)Sevilla/San Pablo, Spain (8391): wind direction: 20.09.2018 17:00:00 - 26.09.2018 17:00:00 (CEST)Sevilla/San Pablo, Spain (8391): reduced air pressure: 20.09.2018 17:00:00 - 26.09.2018 17:00:00 (CEST)Sevilla/San Pablo, Spain (8391): visibility: 20.09.2018 17:00:00 - 26.09.2018 17:00:00 (CEST)
Date & Time tt [°C] td [°C] ff [km/h] ff [kn] dd ppp [hPa] vv [km]
26.09.2018 17:00:00 34,5 14,0 11 6 SSE 1020,0 30
26.09.2018 16:00:00 35,0 14,0 11 6 ESE 1020,4 -
26.09.2018 15:00:00 34,4 13,8 11 6 SE 1021,1 -
26.09.2018 14:00:00 33,3 13,9 9 5 E 1021,7 30
26.09.2018 13:00:00 32,1 13,2 16 9 ESE 1022,2 -
26.09.2018 12:00:00 30,8 15,2 13 7 E 1022,5 -
26.09.2018 11:00:00 29,4 16,2 15 8 ESE 1022,4 30
26.09.2018 10:00:00 26,6 17,9 15 8 ENE 1021,8 -
26.09.2018 09:00:00 24,2 17,2 16 9 ENE 1021,4 -
26.09.2018 08:00:00 21,7 17,1 13 7 NE 1020,9 30
26.09.2018 07:00:00 21,6 16,5 11 6 NNE 1020,3 -
26.09.2018 06:00:00 21,7 16,2 9 5 NE 1020,0 -
26.09.2018 05:00:00 22,8 17,4 4 2 ENE 1019,9 30
26.09.2018 04:00:00 23,3 17,5 4 2 E 1020,0 -
26.09.2018 03:00:00 23,2 17,9 0 0 N 1020,2 -
26.09.2018 02:00:00 23,9 17,3 0 0 N 1020,3 30
26.09.2018 01:00:00 25,6 16,7 0 0 N 1020,0 -
26.09.2018 00:00:00 27,3 16,3 9 5 SSW 1019,4 -
25.09.2018 23:00:00 28,3 16,6 13 7 SW 1018,9 30
25.09.2018 22:00:00 29,5 16,3 13 7 WSW 1018,2 -
25.09.2018 21:00:00 31,4 14,5 15 8 SW 1017,3 -
25.09.2018 20:00:00 34,2 11,4 11 6 WSW 1016,7 30
25.09.2018 19:00:00 36,6 8,2 5 3 SSW 1016,5 -
25.09.2018 18:00:00 37,1 6,2 8 4 SW 1016,8 -
25.09.2018 17:00:00 36,9 6,9 9 5 WSW 1017,1 30
25.09.2018 16:00:00 36,5 6,6 9 5 SW 1017,7 -
25.09.2018 15:00:00 36,0 7,1 9 5 SW 1018,3 -
25.09.2018 14:00:00 34,9 7,8 5 3 SSW 1019,0 30
25.09.2018 13:00:00 33,4 8,8 5 3 ENE 1019,4 -
25.09.2018 12:00:00 31,1 9,6 8 4 ENE 1019,7 -
25.09.2018 11:00:00 27,6 11,7 9 5 N 1019,8 30
25.09.2018 10:00:00 24,1 12,4 8 4 NNE 1019,4 -
25.09.2018 09:00:00 21,4 12,8 4 2 NE 1018,9 -
25.09.2018 08:00:00 20,1 13,1 4 2 NNE 1018,6 30
25.09.2018 07:00:00 21,1 13,0 2 1 NNE 1017,9 -
25.09.2018 06:00:00 21,4 13,7 0 0 N 1017,9 -
25.09.2018 05:00:00 22,6 14,9 0 0 N 1017,9 30
25.09.2018 04:00:00 22,8 14,1 5 3 E 1018,1 -
25.09.2018 03:00:00 23,3 13,5 4 2 ENE 1018,4 -
25.09.2018 02:00:00 23,6 14,0 9 5 SE 1018,4 30
25.09.2018 01:00:00 25,8 13,0 0 0 N 1018,5 -
25.09.2018 00:00:00 28,5 10,6 8 4 W 1018,3 -
24.09.2018 23:00:00 30,1 10,1 13 7 W 1017,6 30
24.09.2018 22:00:00 31,1 11,0 13 7 SW 1017,0 -
24.09.2018 21:00:00 32,1 10,6 15 8 SSW 1016,3 -
24.09.2018 20:00:00 34,6 9,8 9 5 SSE 1015,9 30
24.09.2018 19:00:00 37,7 8,9 11 6 ENE 1015,7 -
24.09.2018 18:00:00 38,3 8,1 13 7 E 1015,8 -
24.09.2018 17:00:00 38,5 7,6 13 7 E 1016,3 30
24.09.2018 16:00:00 37,9 7,7 15 8 E 1017,0 -
24.09.2018 15:00:00 37,3 8,2 13 7 E 1017,8 -
24.09.2018 14:00:00 36,3 8,2 11 6 E 1018,9 30
24.09.2018 13:00:00 35,0 7,9 13 7 E 1019,5 -
24.09.2018 12:00:00 32,0 10,1 11 6 NE 1019,9 -
24.09.2018 11:00:00 28,8 10,5 8 4 NE 1020,0 30
24.09.2018 10:00:00 25,1 10,9 13 7 NE 1019,7 -
24.09.2018 09:00:00 21,0 12,2 5 3 NNE 1019,5 -
24.09.2018 08:00:00 20,1 12,6 9 5 NNE 1019,0 30
24.09.2018 07:00:00 20,0 14,8 4 2 ESE 1018,6 -
24.09.2018 06:00:00 20,0 13,2 0 0 N 1018,6 -
24.09.2018 05:00:00 21,4 13,2 0 0 N 1018,5 30
24.09.2018 04:00:00 22,8 11,1 0 0 N 1018,7 -
24.09.2018 03:00:00 23,7 12,0 5 3 W 1019,0 -
24.09.2018 02:00:00 24,0 13,0 0 0 N 1019,3 30
24.09.2018 01:00:00 27,3 9,0 5 3 WNW 1019,4 -
24.09.2018 00:00:00 27,6 9,3 5 3 W 1019,1 -
23.09.2018 23:00:00 28,3 9,0 8 4 S 1018,7 30
23.09.2018 22:00:00 28,9 9,4 8 4 SSE 1018,4 -
23.09.2018 21:00:00 30,8 8,5 11 6 S 1017,6 -
23.09.2018 20:00:00 35,4 7,3 5 3 S 1017,4 30
23.09.2018 19:00:00 37,3 7,5 9 5 SE 1017,3 -
23.09.2018 18:00:00 37,9 6,6 15 8 E 1017,5 -
23.09.2018 17:00:00 38,0 7,2 16 9 E 1017,9 30
23.09.2018 16:00:00 37,3 8,2 16 9 ENE 1018,5 -
23.09.2018 15:00:00 36,7 10,1 15 8 ENE 1019,2 -
23.09.2018 14:00:00 35,6 11,3 16 9 E 1020,0 30
23.09.2018 13:00:00 34,1 9,5 16 9 ENE 1020,5 -
23.09.2018 12:00:00 31,5 10,2 15 8 NE 1021,2 -
23.09.2018 11:00:00 28,9 9,8 18 10 NE 1021,3 30
23.09.2018 10:00:00 26,4 9,4 15 8 ENE 1021,0 -
23.09.2018 09:00:00 22,6 11,0 13 7 NE 1020,4 -
23.09.2018 08:00:00 21,0 11,3 15 8 NE 1019,9 30
23.09.2018 07:00:00 21,3 12,2 13 7 NE 1019,7 -
23.09.2018 06:00:00 21,1 13,5 8 4 NNE 1019,8 -
23.09.2018 05:00:00 21,5 15,7 9 5 NNE 1019,8 30
23.09.2018 04:00:00 22,6 16,2 4 2 NE 1020,1 -
23.09.2018 03:00:00 24,0 14,4 4 2 N 1020,6 -
23.09.2018 02:00:00 23,8 15,0 0 0 N 1020,5 30
23.09.2018 01:00:00 24,3 15,0 8 4 ESE 1020,7 -
23.09.2018 00:00:00 25,3 15,6 5 3 SE 1020,5 -
22.09.2018 23:00:00 28,9 13,6 0 0 N 1020,1 30
22.09.2018 22:00:00 30,9 12,3 8 4 WSW 1019,6 -
22.09.2018 21:00:00 31,1 7,5 9 5 S 1018,6 -
22.09.2018 20:00:00 34,6 7,6 13 7 S 1018,1 30
22.09.2018 19:00:00 37,0 6,1 16 9 SSE 1017,9 -
22.09.2018 18:00:00 37,6 5,6 22 12 SSE 1017,9 -
22.09.2018 17:00:00 37,9 7,9 18 10 SE 1018,0 30
22.09.2018 16:00:00 37,6 9,0 18 10 E 1018,4 -
22.09.2018 15:00:00 37,0 10,6 11 6 E 1019,2 -
22.09.2018 14:00:00 35,6 10,0 13 7 E 1019,9 30
22.09.2018 13:00:00 34,3 10,8 9 5 ENE 1020,4 -
22.09.2018 12:00:00 31,4 14,1 11 6 NE 1020,6 -
22.09.2018 11:00:00 27,8 15,5 9 5 ENE 1020,7 30
22.09.2018 10:00:00 24,0 16,8 8 4 NNE 1020,3 -
22.09.2018 09:00:00 21,2 17,0 5 3 NNE 1019,9 -
22.09.2018 08:00:00 19,9 16,7 5 3 NE 1019,4 25
22.09.2018 07:00:00 20,8 16,3 8 4 NNE 1018,9 -
22.09.2018 06:00:00 21,4 18,2 8 4 NNE 1018,6 -
22.09.2018 05:00:00 22,2 18,8 0 0 N 1018,4 25
22.09.2018 04:00:00 22,3 18,5 8 4 S 1018,5 -
22.09.2018 03:00:00 23,6 18,0 4 2 E 1018,5 -
22.09.2018 02:00:00 25,0 17,2 8 4 SSW 1018,7 30
22.09.2018 01:00:00 25,8 16,1 9 5 S 1018,6 -
22.09.2018 00:00:00 25,6 17,3 0 0 N 1018,1 -
21.09.2018 23:00:00 26,0 17,4 0 0 N 1017,8 30
21.09.2018 22:00:00 27,5 15,5 0 0 N 1017,2 -
21.09.2018 21:00:00 31,2 10,5 5 3 NNW 1016,4 -
21.09.2018 20:00:00 33,4 9,8 8 4 NW 1016,0 30
21.09.2018 19:00:00 34,7 9,7 8 4 W 1015,8 -
21.09.2018 18:00:00 34,6 11,9 5 3 N 1015,9 -
21.09.2018 17:00:00 35,1 12,8 8 4 NNW 1016,2 30
21.09.2018 16:00:00 34,5 13,8 9 5 N 1016,6 -
21.09.2018 15:00:00 32,8 17,1 5 3 NE 1017,3 -
21.09.2018 14:00:00 32,0 18,0 5 3 SE 1018,0 30
21.09.2018 13:00:00 29,5 18,6 8 4 NE 1018,7 -
21.09.2018 12:00:00 27,9 19,1 5 3 N 1019,1 -
21.09.2018 11:00:00 26,6 19,2 4 2 ENE 1018,7 30
21.09.2018 10:00:00 24,5 20,0 0 0 N 1018,2 -
21.09.2018 09:00:00 21,7 19,9 0 0 N 1018,2 -
21.09.2018 08:00:00 21,1 19,0 5 3 SSE 1017,6 25
21.09.2018 07:00:00 21,3 19,4 5 3 ESE 1017,0 -
21.09.2018 06:00:00 21,5 19,4 8 4 SSE 1016,9 -
21.09.2018 05:00:00 22,5 19,3 4 2 SSW 1017,1 20
21.09.2018 04:00:00 23,1 19,5 5 3 SSW 1017,4 -
21.09.2018 03:00:00 23,5 19,2 11 6 SSW 1017,6 -
21.09.2018 02:00:00 23,8 19,1 11 6 SSW 1017,5 30
21.09.2018 01:00:00 24,2 19,3 9 5 SSW 1017,6 -
21.09.2018 00:00:00 25,0 19,4 13 7 SSW 1017,5 -
20.09.2018 23:00:00 26,3 19,7 13 7 SW 1017,2 30
20.09.2018 22:00:00 27,6 19,9 13 7 SSW 1016,6 -
20.09.2018 21:00:00 29,0 19,3 16 9 SW 1016,0 -
20.09.2018 20:00:00 31,9 13,6 11 6 SW 1015,7 30
20.09.2018 19:00:00 32,8 13,7 15 8 SW 1015,7 -
20.09.2018 18:00:00 33,5 14,1 13 7 SSW 1015,8 -
20.09.2018 17:00:00 34,1 14,6 11 6 SW 1016,3 30

tt = temperature
td = dewpoint
ff = wind speed
dd = wind direction
ppp = reduced air pressure
vv = visibility

Next stations